TimeEST,TemperatureF,Dew PointF,Humidity,Sea Level PressureIn,VisibilityMPH,Wind Direction,Wind SpeedMPH,Gust SpeedMPH,PrecipitationIn,Events,Conditions,WindDirDegrees,DateUTC
12:54 AM,30.0,24.1,79,30.03,6.0,South,11.5,-,N/A,,Haze,190,2013-01-09 05:54:00
1:54 AM,28.9,23.0,78,29.99,6.0,SSE,6.9,-,N/A,,Haze,160,2013-01-09 06:54:00
2:54 AM,28.9,24.1,82,29.96,6.0,South,5.8,-,N/A,,Haze,170,2013-01-09 07:54:00
3:54 AM,30.9,24.1,76,29.94,7.0,South,11.5,-,N/A,,Mostly Cloudy,180,2013-01-09 08:54:00
4:54 AM,32.0,24.1,73,29.91,7.0,South,9.2,-,N/A,,Overcast,190,2013-01-09 09:54:00
5:54 AM,32.0,26.1,79,29.87,7.0,South,11.5,-,0.00,,Mostly Cloudy,190,2013-01-09 10:54:00
6:54 AM,32.0,27.0,82,29.85,7.0,SSW,11.5,-,N/A,,Mostly Cloudy,200,2013-01-09 11:54:00
7:54 AM,32.0,27.0,82,29.86,7.0,SSW,8.1,-,N/A,,Mostly Cloudy,210,2013-01-09 12:54:00
8:00 AM,33.8,26.6,75,29.83,7.0,SSW,9.2,-,N/A,,Overcast,210,2013-01-09 13:00:00
8:54 AM,35.1,28.9,78,29.85,7.0,SW,9.2,-,N/A,,Overcast,230,2013-01-09 13:54:00
9:26 AM,37.4,30.2,75,29.82,8.0,SW,10.4,-,N/A,,Overcast,230,2013-01-09 14:26:00
9:54 AM,37.9,30.0,73,29.85,8.0,WSW,11.5,25.3,N/A,,Overcast,240,2013-01-09 14:54:00
10:54 AM,39.9,28.0,63,29.87,10.0,West,18.4,28.8,N/A,,Mostly Cloudy,260,2013-01-09 15:54:00
11:54 AM,39.9,27.0,60,29.87,10.0,West,17.3,27.6,N/A,,Partly Cloudy,260,2013-01-09 16:54:00
12:54 PM,39.9,26.1,58,29.87,10.0,West,19.6,26.5,N/A,,Mostly Cloudy,260,2013-01-09 17:54:00
1:54 PM,39.0,26.1,60,29.90,10.0,West,19.6,34.5,N/A,,Overcast,260,2013-01-09 18:54:00
2:54 PM,37.0,25.0,62,29.96,10.0,West,17.3,26.5,N/A,,Overcast,270,2013-01-09 19:54:00
3:54 PM,37.0,25.0,62,30.00,10.0,West,12.7,21.9,N/A,,Overcast,270,2013-01-09 20:54:00
4:54 PM,37.0,25.0,62,30.06,10.0,West,12.7,26.5,N/A,,Overcast,260,2013-01-09 21:54:00
5:54 PM,37.0,24.1,59,30.12,10.0,West,11.5,25.3,N/A,,Overcast,270,2013-01-09 22:54:00
6:54 PM,37.0,23.0,57,30.18,10.0,West,9.2,26.5,N/A,,Overcast,280,2013-01-09 23:54:00
7:54 PM,37.0,23.0,57,30.25,10.0,WNW,9.2,26.5,N/A,,Mostly Cloudy,290,2013-01-10 00:54:00
8:54 PM,36.0,21.0,55,30.29,10.0,WNW,11.5,21.9,N/A,,Clear,290,2013-01-10 01:54:00
9:54 PM,36.0,21.0,55,30.33,10.0,WNW,10.4,17.3,N/A,,Mostly Cloudy,290,2013-01-10 02:54:00
10:54 PM,34.0,21.0,59,30.38,10.0,Variable,3.5,-,N/A,,Scattered Clouds,0,2013-01-10 03:54:00
11:54 PM,32.0,21.0,64,30.41,10.0,West,3.5,-,N/A,,Clear,260,2013-01-10 04:54:00